AVA185 SKBO-SKCL

Flight info

Callsign AVA185
Flight time 0h 38m
Altitude 24000
Route KAMIS4C KAMIS W16 GIR R564 MANGA MANGA9
Aircraft A20N/M-SDE2E3FGHIRWXY/LB1

Departure

Time 2026-04-23 19:48
Airport El Dorado International Airport (SKBO)

Arrival

Time 2026-04-23 20:26
Airport Alfonso Bonilla Aragon International Airport (SKCL)
Time Latitude Longitude Altitude Speed Heading
2026-04-23 19:15 4.69767 -74.14502 8370 ft 0 kts 37°
2026-04-23 19:38 4.69757 -74.14509 8370 ft 4 kts 33°
2026-04-23 19:39 4.69733 -74.14522 8370 ft 4 kts 13°
2026-04-23 19:39 4.69709 -74.14522 8370 ft 4 kts 320°
2026-04-23 19:39 4.69701 -74.14514 8369 ft 1 kts 308°
2026-04-23 19:43 4.69724 -74.14543 8369 ft 15 kts 308°
2026-04-23 19:43 4.69787 -74.14626 8369 ft 15 kts 307°
2026-04-23 19:44 4.69835 -74.14690 8370 ft 12 kts 307°
2026-04-23 19:44 4.69849 -74.14736 8369 ft 8 kts 258°
2026-04-23 19:44 4.69795 -74.14786 8370 ft 13 kts 214°
2026-04-23 19:44 4.69707 -74.14773 8370 ft 17 kts 127°
2026-04-23 19:45 4.69630 -74.14669 8370 ft 20 kts 127°
2026-04-23 19:45 4.69531 -74.14543 8369 ft 26 kts 129°
2026-04-23 19:45 4.69412 -74.14384 8370 ft 27 kts 126°
2026-04-23 19:45 4.69293 -74.14231 8370 ft 30 kts 129°
2026-04-23 19:46 4.69177 -74.14086 8370 ft 13 kts 154°
2026-04-23 19:46 4.69124 -74.14100 8370 ft 2 kts 230°
2026-04-23 19:46 4.69097 -74.14124 8371 ft 8 kts 215°
2026-04-23 19:46 4.69043 -74.14163 8372 ft 0 kts 220°
2026-04-23 19:47 4.69021 -74.14192 8372 ft 12 kts 251°
2026-04-23 19:47 4.69042 -74.14258 8372 ft 0 kts 307°
2026-04-23 19:47 4.69072 -74.14297 8371 ft 14 kts 307°
2026-04-23 19:47 4.69224 -74.14502 8370 ft 68 kts 307°
2026-04-23 19:48 4.69624 -74.15030 8371 ft 120 kts 306°
2026-04-23 19:48 4.70214 -74.15806 8370 ft 161 kts 307°
2026-04-23 19:48 4.70944 -74.16754 8749 ft 170 kts 306°
2026-04-23 19:48 4.71663 -74.17648 9445 ft 163 kts 308°
2026-04-23 19:49 4.72369 -74.18562 9805 ft 167 kts 304°
2026-04-23 19:49 4.72967 -74.19586 10111 ft 175 kts 294°
2026-04-23 19:49 4.73471 -74.20792 10306 ft 200 kts 291°
2026-04-23 19:49 4.73961 -74.22181 10581 ft 221 kts 288°
2026-04-23 19:50 4.74466 -74.23717 10807 ft 244 kts 298°
2026-04-23 19:50 4.75261 -74.25297 11154 ft 261 kts 284°
2026-04-23 19:50 4.75334 -74.27110 11676 ft 265 kts 258°
2026-04-23 19:50 4.74627 -74.28809 11868 ft 266 kts 239°
2026-04-23 19:51 4.73613 -74.30358 11909 ft 266 kts 237°
2026-04-23 19:51 4.72641 -74.31911 11891 ft 265 kts 240°
2026-04-23 19:51 4.71766 -74.33536 11872 ft 265 kts 244°
2026-04-23 19:51 4.70973 -74.35211 11848 ft 265 kts 246°
2026-04-23 19:52 4.70227 -74.36909 11821 ft 266 kts 247°
2026-04-23 19:52 4.69495 -74.38607 11798 ft 266 kts 247°
2026-04-23 19:52 4.68761 -74.40311 11777 ft 266 kts 247°
2026-04-23 19:52 4.67891 -74.41941 11756 ft 267 kts 232°
2026-04-23 19:53 4.66534 -74.43193 11993 ft 272 kts 212°
2026-04-23 19:53 4.64863 -74.44161 12474 ft 286 kts 211°
2026-04-23 19:53 4.63087 -74.45219 12703 ft 309 kts 212°
2026-04-23 19:53 4.61175 -74.46373 12897 ft 332 kts 212°
2026-04-23 19:54 4.59139 -74.47620 13104 ft 352 kts 212°
2026-04-23 19:54 4.57027 -74.48934 13682 ft 359 kts 212°
2026-04-23 19:54 4.54900 -74.50257 14339 ft 361 kts 212°
2026-04-23 19:54 4.52753 -74.51589 14996 ft 365 kts 212°
2026-04-23 19:55 4.50575 -74.52937 15569 ft 369 kts 212°
2026-04-23 19:55 4.48411 -74.54274 15814 ft 371 kts 212°
2026-04-23 19:55 4.46212 -74.55631 15895 ft 372 kts 212°
2026-04-23 19:55 4.44012 -74.56989 15890 ft 371 kts 212°
2026-04-23 19:56 4.41811 -74.58348 15886 ft 371 kts 212°
2026-04-23 19:56 4.39603 -74.59711 15882 ft 371 kts 212°
2026-04-23 19:56 4.37509 -74.61188 15942 ft 374 kts 220°
2026-04-23 19:56 4.35652 -74.63024 16524 ft 375 kts 230°
2026-04-23 19:57 4.34082 -74.65114 17204 ft 376 kts 235°
2026-04-23 19:57 4.32582 -74.67280 17808 ft 380 kts 235°
2026-04-23 19:57 4.31059 -74.69470 18351 ft 384 kts 235°
2026-04-23 19:57 4.29525 -74.71680 18857 ft 388 kts 235°
2026-04-23 19:58 4.27976 -74.73914 19374 ft 392 kts 236°
2026-04-23 19:58 4.26413 -74.76168 19894 ft 396 kts 236°
2026-04-23 19:58 4.24831 -74.78451 20403 ft 400 kts 236°
2026-04-23 19:58 4.23237 -74.80747 20881 ft 404 kts 236°
2026-04-23 19:59 4.21649 -74.83040 21356 ft 407 kts 236°
2026-04-23 19:59 4.20027 -74.85383 21823 ft 411 kts 236°
2026-04-23 19:59 4.18541 -74.87837 22295 ft 414 kts 244°
2026-04-23 19:59 4.17231 -74.90418 22767 ft 417 kts 244°
2026-04-23 20:00 4.15904 -74.93024 23228 ft 421 kts 244°
2026-04-23 20:00 4.14562 -74.95647 23625 ft 424 kts 244°
2026-04-23 20:00 4.13211 -74.98285 23798 ft 425 kts 244°
2026-04-23 20:00 4.11858 -75.00924 23863 ft 426 kts 244°
2026-04-23 20:01 4.10503 -75.03566 23861 ft 425 kts 244°
2026-04-23 20:01 4.09167 -75.06172 23867 ft 425 kts 244°
2026-04-23 20:01 4.07818 -75.08802 23873 ft 425 kts 244°
2026-04-23 20:01 4.06467 -75.11439 23878 ft 425 kts 244°
2026-04-23 20:02 4.05115 -75.14075 23880 ft 425 kts 244°
2026-04-23 20:02 4.03764 -75.16711 23887 ft 425 kts 244°
2026-04-23 20:02 4.02410 -75.19352 23892 ft 425 kts 244°
2026-04-23 20:02 4.01060 -75.21986 23895 ft 425 kts 244°
2026-04-23 20:03 3.99707 -75.24622 23903 ft 425 kts 244°
2026-04-23 20:03 3.98354 -75.27260 23909 ft 425 kts 244°
2026-04-23 20:03 3.97004 -75.29893 23910 ft 425 kts 243°
2026-04-23 20:03 3.95667 -75.32499 23916 ft 425 kts 243°
2026-04-23 20:04 3.94314 -75.35136 23919 ft 425 kts 243°
2026-04-23 20:04 3.92961 -75.37773 23931 ft 425 kts 243°
2026-04-23 20:04 3.91605 -75.40414 23936 ft 425 kts 243°
2026-04-23 20:04 3.90252 -75.43052 23945 ft 425 kts 243°
2026-04-23 20:05 3.88899 -75.45688 23948 ft 425 kts 243°
2026-04-23 20:05 3.87560 -75.48296 23956 ft 425 kts 243°
2026-04-23 20:05 3.86205 -75.50937 23965 ft 425 kts 243°
2026-04-23 20:05 3.84850 -75.53576 23970 ft 425 kts 243°
2026-04-23 20:06 3.83496 -75.56215 23977 ft 425 kts 243°
2026-04-23 20:06 3.82144 -75.58849 23983 ft 425 kts 243°
2026-04-23 20:06 3.80790 -75.61487 23943 ft 425 kts 243°
2026-04-23 20:06 3.79437 -75.64121 23750 ft 424 kts 243°
2026-04-23 20:07 3.78093 -75.66738 23537 ft 421 kts 243°
2026-04-23 20:07 3.76758 -75.69336 23285 ft 418 kts 243°
2026-04-23 20:07 3.75430 -75.71923 22828 ft 418 kts 243°
2026-04-23 20:07 3.74098 -75.74515 22266 ft 416 kts 243°
2026-04-23 20:08 3.72780 -75.77082 21707 ft 413 kts 243°
2026-04-23 20:08 3.71490 -75.79591 21164 ft 409 kts 243°
2026-04-23 20:08 3.70193 -75.82114 20701 ft 404 kts 243°
2026-04-23 20:08 3.68913 -75.84611 20141 ft 401 kts 243°
2026-04-23 20:09 3.67646 -75.87088 19558 ft 399 kts 243°
2026-04-23 20:09 3.66397 -75.89528 19092 ft 388 kts 243°
2026-04-23 20:09 3.65171 -75.91922 18459 ft 381 kts 243°
2026-04-23 20:09 3.63968 -75.94273 17883 ft 378 kts 243°
2026-04-23 20:10 3.63176 -75.95818 17552 ft 375 kts 243°
2026-04-23 20:10 3.61601 -75.98894 17098 ft 364 kts 243°
2026-04-23 20:10 3.60468 -76.01105 17024 ft 349 kts 243°
2026-04-23 20:10 3.59386 -76.03217 17014 ft 333 kts 243°
2026-04-23 20:11 3.58356 -76.05230 17008 ft 317 kts 243°
2026-04-23 20:11 3.57389 -76.07115 17005 ft 300 kts 243°
2026-04-23 20:11 3.56460 -76.08929 17002 ft 285 kts 243°
2026-04-23 20:11 3.55578 -76.10650 16922 ft 273 kts 243°
2026-04-23 20:12 3.54717 -76.12326 16481 ft 270 kts 243°
2026-04-23 20:12 3.53865 -76.13985 16090 ft 261 kts 243°
2026-04-23 20:12 3.53057 -76.15559 15841 ft 249 kts 243°
2026-04-23 20:12 3.52268 -76.17096 15244 ft 252 kts 243°
2026-04-23 20:13 3.51471 -76.18648 14875 ft 244 kts 243°
2026-04-23 20:13 3.50711 -76.20128 14612 ft 235 kts 243°
2026-04-23 20:13 3.49966 -76.21579 14191 ft 234 kts 243°
2026-04-23 20:13 3.49244 -76.22985 14036 ft 216 kts 242°
2026-04-23 20:14 3.48585 -76.24270 13913 ft 199 kts 242°
2026-04-23 20:14 3.47976 -76.25455 13814 ft 185 kts 242°
2026-04-23 20:14 3.47404 -76.26570 13610 ft 177 kts 242°
2026-04-23 20:14 3.46842 -76.27664 13283 ft 177 kts 242°
2026-04-23 20:15 3.46267 -76.28746 12952 ft 177 kts 234°
2026-04-23 20:15 3.45327 -76.29511 12608 ft 176 kts 201°
2026-04-23 20:15 3.44119 -76.29637 12280 ft 177 kts 169°
2026-04-23 20:15 3.42936 -76.29287 11969 ft 177 kts 166°
2026-04-23 20:16 3.41752 -76.29035 11670 ft 176 kts 173°
2026-04-23 20:16 3.40535 -76.28921 11375 ft 175 kts 179°
2026-04-23 20:16 3.39319 -76.28940 11087 ft 174 kts 185°
2026-04-23 20:16 3.38120 -76.29088 10805 ft 173 kts 191°
2026-04-23 20:17 3.36943 -76.29359 10517 ft 173 kts 197°
2026-04-23 20:17 3.35807 -76.29748 10252 ft 172 kts 202°
2026-04-23 20:17 3.34719 -76.30250 9973 ft 172 kts 208°
2026-04-23 20:17 3.33692 -76.30857 9684 ft 171 kts 214°
2026-04-23 20:18 3.32735 -76.31564 9371 ft 171 kts 219°
2026-04-23 20:18 3.31858 -76.32361 9109 ft 170 kts 225°
2026-04-23 20:18 3.31082 -76.33228 8974 ft 166 kts 231°
2026-04-23 20:18 3.30396 -76.34166 8969 ft 171 kts 237°
2026-04-23 20:19 3.29795 -76.35185 8970 ft 169 kts 243°
2026-04-23 20:19 3.29303 -76.36256 8970 ft 170 kts 248°
2026-04-23 20:19 3.28928 -76.37377 8966 ft 169 kts 259°
2026-04-23 20:19 3.29030 -76.38539 8978 ft 171 kts 282°
2026-04-23 20:20 3.29219 -76.39710 8967 ft 170 kts 278°
2026-04-23 20:20 3.29481 -76.40863 8959 ft 170 kts 296°
2026-04-23 20:20 3.30269 -76.41703 8972 ft 171 kts 333°
2026-04-23 20:20 3.31412 -76.42000 8971 ft 172 kts 357°
2026-04-23 20:21 3.32604 -76.41938 8969 ft 172 kts
2026-04-23 20:21 3.33785 -76.41750 8972 ft 171 kts 10°
2026-04-23 20:21 3.34915 -76.41553 8948 ft 157 kts
2026-04-23 20:21 3.35981 -76.41368 8708 ft 154 kts
2026-04-23 20:22 3.37035 -76.41184 8400 ft 153 kts
2026-04-23 20:22 3.38082 -76.41001 8030 ft 153 kts
2026-04-23 20:22 3.39127 -76.40819 7671 ft 152 kts
2026-04-23 20:22 3.40169 -76.40637 7320 ft 151 kts
2026-04-23 20:23 3.41204 -76.40457 6985 ft 150 kts
2026-04-23 20:23 3.42229 -76.40278 6663 ft 149 kts
2026-04-23 20:23 3.43249 -76.40100 6373 ft 148 kts
2026-04-23 20:23 3.44250 -76.39926 6040 ft 148 kts
2026-04-23 20:24 3.45261 -76.39749 5706 ft 147 kts
2026-04-23 20:24 3.46268 -76.39573 5380 ft 146 kts
2026-04-23 20:24 3.47273 -76.39399 5056 ft 146 kts
2026-04-23 20:24 3.48267 -76.39224 4798 ft 142 kts
2026-04-23 20:25 3.49267 -76.39051 4486 ft 149 kts
2026-04-23 20:25 3.50303 -76.38870 4102 ft 151 kts
2026-04-23 20:25 3.51333 -76.38670 3743 ft 148 kts
2026-04-23 20:25 3.52332 -76.38498 3419 ft 144 kts
2026-04-23 20:26 3.53302 -76.38338 3168 ft 135 kts
2026-04-23 20:26 3.54116 -76.38203 3168 ft 96 kts
2026-04-23 20:26 3.54632 -76.38115 3164 ft 65 kts
2026-04-23 20:26 3.54937 -76.38060 3162 ft 38 kts 10°
2026-04-23 20:27 3.55048 -76.38043 3165 ft 4 kts
2026-04-23 20:27 3.55102 -76.38098 3166 ft 11 kts 281°
2026-04-23 20:27 3.55108 -76.38172 3166 ft 13 kts 254°
2026-04-23 20:27 3.55057 -76.38204 3166 ft 16 kts 197°
2026-04-23 20:28 3.54922 -76.38227 3166 ft 24 kts 191°
2026-04-23 20:28 3.54741 -76.38257 3164 ft 28 kts 190°
2026-04-23 20:28 3.54548 -76.38293 3164 ft 29 kts 191°
2026-04-23 20:28 3.54349 -76.38329 3165 ft 29 kts 188°
2026-04-23 20:29 3.54203 -76.38351 3165 ft 16 kts 189°
2026-04-23 20:29 3.54117 -76.38367 3165 ft 13 kts 199°
2026-04-23 20:29 3.54035 -76.38422 3164 ft 16 kts 221°
2026-04-23 20:29 3.53945 -76.38499 3163 ft 18 kts 220°
2026-04-23 20:30 3.53874 -76.38554 3163 ft 0 kts 216°
2026-04-23 20:30 3.53830 -76.38629 3162 ft 9 kts 264°
2026-04-23 20:30 3.53827 -76.38653 3162 ft 7 kts 265°
2026-04-23 20:31 3.53825 -76.38685 3162 ft 4 kts 265°
2026-04-23 20:31 3.53823 -76.38700 3162 ft 0 kts 264°
2026-04-23 20:31 3.53823 -76.38703 3162 ft 0 kts 264°